Kuala Lumpur, Malaysia

12:56 PM +08 on March 28, 2017 (GMT +0800)
Kuala Lumpur International -Sepang

Weather History for WMKK - December, 2012

Change the Weather History Date:

Thursday, December 6, 2012

  Actual Average Record
Temperature  
Mean Temperature 83 °F -  
Max Temperature 90 °F - - ()
Min Temperature 76 °F - - ()
Cooling Degree Days 18    
Growing Degree Days 33 (Base 50)    
Moisture  
Dew Point 76 °F    
Average Humidity 87    
Maximum Humidity 100    
Minimum Humidity 63    
Precipitation  
Precipitation 1.46 in - - ()
Sea Level Pressure  
Sea Level Pressure 29.81 in    
Wind  
Wind Speed 3 mph ()    
Max Wind Speed 10 mph    
Max Gust Speed 21 mph    
Visibility 6.1 miles    
Events Rain , Thunderstorm    
T = Trace of Precipitation, MM = Missing Value Source: Averaged Metar Reports

Daily Weather History Graph

Daily Weather History Graph

Search for Another Location

Airport or City:

Trip Planner

Search our weather history database for the weather conditions in past years. The results will help you decide how hot, cold, wet, or windy it might be!

Date:

Astronomy

Dec. 06, 2012 Rise Set
Actual Time 7:06 AM +08 7:03 PM +08
Civil Twilight 6:43 AM +08 7:25 PM +08
Nautical Twilight 6:18 AM +08 7:51 PM +08
Astronomical Twilight 5:51 AM +08 8:17 PM +08
Moon 12:23 AM +08 (12/6) 12:47 PM +08 (12/6)
Length of Visible Light 12h 41m
Length of Day
11h 57m
Waning Gibbous, 55% of the Moon is Illuminated
Dec 6
Waning Gibbous
Dec 6
Last Quarter
Dec 13
New
Dec 20
First Quarter
Dec 28
Full

Hourly Weather History & Observations

Time (+08) Temp. Heat Index Dew Point Humidity Pressure Visibility Wind Dir Wind Speed Gust Speed Precip Events Conditions
12:00 AM 78.8 °F - 75.2 °F 89% 29.86 in 6.2 mi West 3.5 mph - N/A   Mostly Cloudy
12:30 AM 78.8 °F - 75.2 °F 89% 29.83 in 6.2 mi NE 5.8 mph - N/A   Mostly Cloudy
1:00 AM 78.8 °F - 75.2 °F 89% 29.83 in 6.2 mi North 1.2 mph - N/A   Mostly Cloudy
1:30 AM 78.8 °F - 75.2 °F 89% 29.83 in 6.2 mi NW 3.5 mph - N/A   Mostly Cloudy
2:00 AM 77 °F - 76 °F 97% 29.84 in 2 mi WNW 1.2 mph - -   Partly Cloudy
2:00 AM 78.8 °F - 75.2 °F 89% 29.83 in 6.2 mi NNE 3.5 mph - N/A   Mostly Cloudy
2:30 AM 78.8 °F - 75.2 °F 89% 29.80 in 6.2 mi NNE 4.6 mph - N/A   Mostly Cloudy
3:00 AM 78.8 °F - 75.2 °F 89% 29.80 in 6.2 mi NNE 3.5 mph - N/A   Mostly Cloudy
3:30 AM 77.0 °F - 75.2 °F 94% 29.80 in 6.2 mi North 3.5 mph - N/A   Mostly Cloudy
4:00 AM 77.0 °F - 75.2 °F 94% 29.80 in 6.2 mi WNW 2.3 mph - N/A   Mostly Cloudy
4:30 AM 77.0 °F - 75.2 °F 94% 29.77 in 6.2 mi NW 2.3 mph - N/A   Mostly Cloudy
5:00 AM 76 °F - 76 °F 100% 29.79 in 4 mi NW 1.2 mph - -   Scattered Clouds
5:00 AM 77.0 °F - 75.2 °F 94% 29.77 in 6.2 mi WNW 2.3 mph - N/A   Mostly Cloudy
5:30 AM 77.0 °F - 75.2 °F 94% 29.77 in 6.2 mi WNW 2.3 mph - N/A   Mostly Cloudy
6:00 AM 77.0 °F - 75.2 °F 94% 29.77 in 6.2 mi WNW 1.2 mph - N/A   Mostly Cloudy
6:30 AM 77.0 °F - 75.2 °F 94% 29.80 in 6.2 mi NNW 1.2 mph - N/A   Mostly Cloudy
7:00 AM 77.0 °F - 75.2 °F 94% 29.80 in 6.2 mi NW 2.3 mph - N/A   Mostly Cloudy
7:30 AM 77.0 °F - 75.2 °F 94% 29.80 in 6.2 mi NW 1.2 mph - N/A   Mostly Cloudy
8:00 AM 77 °F - 76 °F 97% 29.84 in 4 mi West 1.2 mph - -   Mist
8:00 AM 78.8 °F - 75.2 °F 89% 29.83 in 6.2 mi North 2.3 mph - N/A   Mostly Cloudy
8:30 AM 78.8 °F - 75.2 °F 89% 29.83 in 6.2 mi North 3.5 mph - N/A   Mostly Cloudy
9:00 AM 80.6 °F 86.2 °F 75.2 °F 84% 29.86 in 6.2 mi NNW 2.3 mph - N/A   Mostly Cloudy
9:30 AM 80.6 °F 86.2 °F 75.2 °F 84% 29.86 in 6.2 mi North 3.5 mph - N/A   Mostly Cloudy
10:00 AM 82.4 °F 90.9 °F 77.0 °F 84% 29.86 in 6.2 mi WNW 3.5 mph - N/A   Mostly Cloudy
10:30 AM 84.2 °F 94.1 °F 77.0 °F 79% 29.86 in 6.2 mi West 3.5 mph - N/A   Mostly Cloudy
11:00 AM 86 °F - 77 °F 69% 29.86 in 9 mi West 4.6 mph - -   Haze
11:00 AM 86.0 °F 96.9 °F 77.0 °F 74% 29.86 in 6.2 mi West 4.6 mph - N/A   Mostly Cloudy
11:30 AM 86.0 °F 96.9 °F 77.0 °F 74% 29.83 in 6.2 mi West 3.5 mph - N/A   Mostly Cloudy
12:00 PM 87.8 °F 99.7 °F 77.0 °F 70% 29.83 in 6.2 mi WNW 2.3 mph - N/A   Mostly Cloudy
12:30 PM 87.8 °F 99.7 °F 77.0 °F 70% 29.83 in 6.2 mi WSW 3.5 mph - N/A   Mostly Cloudy
1:00 PM 87.8 °F 99.7 °F 77.0 °F 70% 29.80 in 6.2 mi West 3.5 mph - N/A   Mostly Cloudy
1:30 PM 89.6 °F 102.2 °F 77.0 °F 66% 29.80 in 6.2 mi SW 3.5 mph - N/A   Mostly Cloudy
2:00 PM 90 °F - 79 °F 63% 29.80 in 11 mi West 4.6 mph - -   Haze
2:00 PM 89.6 °F 102.2 °F 77.0 °F 66% 29.80 in 6.2 mi WSW 4.6 mph - N/A   Mostly Cloudy
2:30 PM 91.4 °F 111.0 °F 80.6 °F 71% 29.77 in 6.2 mi SSW 8.1 mph - N/A   Mostly Cloudy
3:00 PM 89.6 °F 104.7 °F 78.8 °F 70% 29.77 in 6.2 mi SSW 8.1 mph - N/A   Mostly Cloudy
3:30 PM 84.2 °F 94.1 °F 77.0 °F 79% 29.74 in 5.0 mi ENE 10.4 mph - N/A Rain , Thunderstorm Light Thunderstorms and Rain
4:00 PM 80.6 °F 87.1 °F 77.0 °F 89% 29.77 in 5.0 mi NNE 9.2 mph 20.7 mph N/A Rain , Thunderstorm Light Thunderstorms and Rain
4:30 PM 78.8 °F - 77.0 °F 94% 29.77 in 6.2 mi West 3.5 mph - N/A Rain Light Rain
5:00 PM 77 °F - 76 °F 96% 29.77 in 6 mi WSW 2.3 mph - - Rain , Thunderstorm Thunderstorms and Rain
5:00 PM 78.8 °F - 75.2 °F 89% 29.77 in 6.2 mi NW 3.5 mph - N/A Rain Light Rain
5:30 PM 80.6 °F 87.1 °F 77.0 °F 89% 29.74 in 6.2 mi North 1.2 mph - N/A   Mostly Cloudy
6:00 PM 82.4 °F 90.9 °F 77.0 °F 84% 29.77 in 6.2 mi North 1.2 mph - N/A   Mostly Cloudy
6:30 PM 80.6 °F 87.1 °F 77.0 °F 89% 29.77 in 6.2 mi North 5.8 mph - N/A   Mostly Cloudy
7:00 PM 80.6 °F 87.1 °F 77.0 °F 89% 29.77 in 6.2 mi North 3.5 mph - N/A   Mostly Cloudy
7:30 PM 78.8 °F - 77.0 °F 94% 29.77 in 6.2 mi NNW 3.5 mph - N/A   Mostly Cloudy
8:00 PM 78 °F - 77 °F 96% 29.82 in 5 mi West 2.3 mph - -   Scattered Clouds
8:00 PM 78.8 °F - 77.0 °F 94% 29.80 in 6.2 mi North 3.5 mph - N/A   Mostly Cloudy
8:30 PM 78.8 °F - 77.0 °F 94% 29.80 in 6.2 mi NNW 2.3 mph - N/A   Mostly Cloudy
9:00 PM 78.8 °F - 75.2 °F 89% 29.80 in 6.2 mi North 2.3 mph - N/A   Mostly Cloudy
9:30 PM 78.8 °F - 75.2 °F 89% 29.83 in 6.2 mi NE 3.5 mph - N/A   Mostly Cloudy
10:00 PM 78.8 °F - 75.2 °F 89% 29.83 in 6.2 mi NNE 4.6 mph - N/A   Mostly Cloudy
10:30 PM 78.8 °F - 75.2 °F 89% 29.83 in 6.2 mi East 3.5 mph - N/A   Mostly Cloudy
11:00 PM 77 °F - 77 °F 98% 29.84 in 4 mi Calm Calm - -   Mist
11:00 PM 78.8 °F - 75.2 °F 89% 29.83 in 6.2 mi NE 1.2 mph - N/A   Mostly Cloudy
11:30 PM 78.8 °F - 77.0 °F 94% 29.83 in 6.2 mi WNW 1.2 mph - N/A   Mostly Cloudy